Tracking 25734 objects as of 27-May-2022
HD Live streaming from Space Station
objects crossing your sky now

COSMOS 2195

Track COSMOS 2195 now!
10-day predictions
COSMOS 2195 is classified as:


NORAD ID: 22006
Int'l Code: 1992-036A
Perigee: 960.6 km
Apogee: 1,017.2 km
Inclination: 82.9 °
Period: 104.7 minutes
Semi major axis: 7359 km
RCS: 2.4537 m2 (large)
Launch date: July 1, 1992
Source: Commonwealth of Independent States (former USSR) (CIS)
Launch site: PLESETSK MISSILE AND SPACE COMPLEX (PKMTR)
aabbcc
Your satellite tracking list
Your tracking list is empty




NASA's NSSDC Master Catalog

Two Line Element Set (TLE):
1 22006U 92036A   22147.57887522  .00000025  00000-0  10081-4 0  9991
2 22006  82.9352  77.1439 0038452  87.3591  86.2894 13.74983003500502
Source of the keplerian elements: AFSPC